Location: Aixirivali
(42.4625°N, 1.5021°E)
Time: 20:50:32
(UTC+00:00)

ARIANE 5 R/B - Pass Details

Date: 08 August 2025
Orbit: 614 x 648 km, 98.0° (Epoch: 14 September)

Event Time Altitude Azimuth Distance (km) Brightness Sun altitude
Exits shadow 22:05:12 22° 51° (NE) 1,376 4.4 -26.0°
Drops below altitude 10° 22:07:50 10° 15° (NNE) 1,992 5.7 -26.3°
Sets 22:10:22 0° 1° (N) 2,898 6.9 -26.5°
